Location: Clyde
(45.1830°S, 169.3170°E)
Time: 11:17:35
(UTC+13:00)

CZ-4C R/B - Pass Details

Date: 24 January 2019
Orbit: 671 x 1331 km, 63.4° (Epoch: 14 February)

Event Time Altitude Azimuth Distance (km) Brightness Sun altitude
Rises 21:58:42 0° 220° (SW) 3,774 7.5 -6.3°
Reaches altitude 10° 22:02:14 10° 204° (SSW) 2,689 5.9 -6.8°
Maximum altitude 22:06:47 21° 157° (SSE) 1,867 4.2 -7.4°
Drops below altitude 10° 22:10:51 10° 108° (ESE) 2,371 4.2 -8.0°
Enters shadow 22:13:13 - 93° (E) 3,045 4.7 -8.3°
